Date String (YYYY-MM-DD hh:mm:ss) UTC,Instrument flags,Ambient pressure (hPa),Sample flow (lpm),Bypass flow (lpm),Sample temperature (°C),Ambient temperature (°C),ASC tube jacket temperature (°C),LED temperature (°C),Box temperature (°C),Sample RH (%),Span deviation,Mass concentration (μg/m³),Mass concentration (μg/m³),Mass concentration (μg/m³)
DateTimeUTC,F1_M11,P_M11,Q1_M11,Q2_M11,T1_M11,T2_M11,T3_M11,T4_M11,T5_M11,U1_M11,ZSPAN_M11,X0_M11,X2_M11,X1_M11
2021-10-11 04:00:00,,0822.3,5.00,0.00,29.6,28.6,00.0,38.8,31.3,09.2,0000.0,0003.06,0002.46,0002.22
2021-10-11 04:01:00,,0822.3,4.99,0.00,29.6,28.6,00.0,38.8,31.3,09.2,0000.0,0003.06,0002.45,0002.21
2021-10-11 04:02:00,,0822.3,5.01,0.00,29.6,28.6,00.0,38.8,31.4,09.2,0000.0,0003.09,0002.43,0002.19
2021-10-11 04:03:00,,0822.3,4.99,0.00,29.6,28.6,00.0,38.8,31.4,09.2,0000.0,0003.08,0002.43,0002.19
2021-10-11 04:04:00,,0822.3,5.00,0.00,29.6,28.6,00.0,38.8,31.3,09.2,0000.0,0003.10,0002.42,0002.19
2021-10-11 04:05:00,,0822.3,5.00,0.00,29.7,28.6,00.0,38.8,31.4,09.2,0000.0,0003.12,0002.41,0002.19
2021-10-11 04:06:00,,0822.3,5.00,0.00,29.7,28.6,00.0,38.8,31.4,09.2,0000.0,0003.14,0002.42,0002.19
2021-10-11 04:07:00,,0822.3,5.01,0.00,29.7,28.6,00.0,38.8,31.4,09.2,0000.0,0003.03,0002.40,0002.20
2021-10-11 04:08:00,,0822.3,5.00,0.00,29.7,28.6,00.0,38.8,31.4,09.2,0000.0,0003.03,0002.39,0002.19
2021-10-11 04:09:00,,0822.2,4.99,0.00,29.7,28.6,00.0,38.8,31.3,09.2,0000.0,0003.03,0002.40,0002.19
2021-10-11 04:10:00,,0822.2,5.01,0.00,29.7,28.6,00.0,38.8,31.4,09.2,0000.0,0003.07,0002.42,0002.19
2021-10-11 04:11:00,,0822.2,5.00,0.00,29.7,28.6,00.0,38.8,31.4,09.2,0000.0,0003.04,0002.41,0002.19
2021-10-11 04:12:00,,0822.2,5.00,0.00,29.7,28.6,00.0,38.8,31.3,09.2,0000.0,0003.03,0002.41,0002.20
2021-10-11 04:13:00,,0822.2,5.00,0.00,29.7,28.6,00.0,38.8,31.3,09.2,0000.0,0002.99,0002.41,0002.20
2021-10-11 04:14:00,,0822.2,5.01,0.00,29.7,28.6,00.0,38.8,31.3,09.2,0000.0,0003.02,0002.42,0002.20
2021-10-11 04:15:00,,0822.2,5.01,0.00,29.7,28.6,00.0,38.8,31.4,09.2,0000.0,0003.00,0002.43,0002.20
2021-10-11 04:16:00,,0822.2,4.99,0.00,29.7,28.6,00.0,38.8,31.4,09.2,0000.0,0002.95,0002.42,0002.19
2021-10-11 04:17:00,,0822.2,5.01,0.00,29.7,28.6,00.0,38.8,31.3,09.2,0000.0,0003.05,0002.44,0002.20
2021-10-11 04:18:00,,0822.1,4.99,0.00,29.7,28.6,00.0,38.8,31.3,09.2,0000.0,0003.08,0002.45,0002.20
2021-10-11 04:19:00,,0822.2,5.00,0.00,29.7,28.6,00.0,38.8,31.3,09.2,0000.0,0003.12,0002.47,0002.20
2021-10-11 04:20:00,,0822.2,5.00,0.00,29.7,28.5,00.0,38.8,31.3,09.2,0000.0,0003.08,0002.45,0002.20
2021-10-11 04:21:00,,0822.1,5.01,0.00,29.6,28.5,00.0,38.8,31.3,09.2,0000.0,0003.13,0002.46,0002.19
2021-10-11 04:22:00,,0822.1,4.99,0.00,29.6,28.5,00.0,38.8,31.3,09.2,0000.0,0003.25,0002.50,0002.19
2021-10-11 04:23:00,,0822.1,4.99,0.00,29.6,28.5,00.0,38.8,31.3,09.2,0000.0,0003.23,0002.48,0002.18
2021-10-11 04:24:00,,0822.0,5.01,0.00,29.6,28.5,00.0,38.8,31.2,09.2,0000.0,0003.29,0002.51,0002.19
2021-10-11 04:25:00,,0822.1,5.00,0.00,29.6,28.4,00.0,38.8,31.2,09.2,0000.0,0003.32,0002.53,0002.20
2021-10-11 04:26:00,,0822.1,4.99,0.00,29.6,28.5,00.0,38.8,31.2,09.2,0000.0,0003.23,0002.50,0002.21
2021-10-11 04:27:00,,0822.1,5.00,0.00,29.6,28.5,00.0,38.8,31.2,09.2,0000.0,0003.23,0002.50,0002.21
2021-10-11 04:28:00,,0822.1,5.01,0.00,29.6,28.5,00.0,38.8,31.2,09.2,0000.0,0003.16,0002.50,0002.22
2021-10-11 04:29:00,,0822.1,4.99,0.00,29.6,28.5,00.0,38.8,31.3,09.2,0000.0,0003.09,0002.48,0002.22
2021-10-11 04:30:00,,0822.1,5.00,0.00,29.6,28.5,00.0,38.8,31.2,09.2,0000.0,0004.07,0002.45,0002.21
2021-10-11 04:31:00,,0822.1,5.00,0.00,29.6,28.5,00.0,38.8,31.3,09.2,0000.0,0005.46,0002.49,0002.22
2021-10-11 04:32:00,,0822.2,5.00,0.00,29.6,28.5,00.0,38.8,31.3,09.2,0000.0,0005.55,0002.53,0002.23
2021-10-11 04:33:00,,0822.1,5.01,0.00,29.6,28.5,00.0,38.8,31.3,09.2,0000.0,0005.43,0002.49,0002.23
2021-10-11 04:34:00,,0822.1,4.99,0.00,29.6,28.5,00.0,38.8,31.3,09.2,0000.0,0005.53,0002.54,0002.24
2021-10-11 04:35:00,,0822.1,5.02,0.00,29.6,28.5,00.0,38.8,31.3,09.2,0000.0,0005.49,0002.53,0002.25
2021-10-11 04:36:00,,0822.1,4.99,0.00,29.6,28.6,00.0,38.8,31.3,09.2,0000.0,0005.44,0002.49,0002.24
2021-10-11 04:37:00,,0822.0,5.01,0.00,29.6,28.5,00.0,38.8,31.3,09.2,0000.0,0005.50,0002.51,0002.24
2021-10-11 04:38:00,,0822.0,5.00,0.00,29.6,28.6,00.0,38.8,31.3,09.2,0000.0,0005.57,0002.54,0002.25
2021-10-11 04:39:00,,0822.0,5.00,0.00,29.6,28.6,00.0,38.8,31.3,09.2,0000.0,0005.54,0002.53,0002.25
2021-10-11 04:40:00,,0822.1,4.99,0.00,29.6,28.6,00.0,38.8,31.3,09.2,0000.0,0005.57,0002.54,0002.25
2021-10-11 04:41:00,,0822.1,5.00,0.00,29.6,28.6,00.0,38.8,31.3,09.2,0000.0,0004.86,0002.56,0002.26
2021-10-11 04:42:00,,0822.1,5.01,0.00,29.6,28.6,00.0,38.8,31.3,09.2,0000.0,0003.17,0002.54,0002.27
2021-10-11 04:43:00,,0822.1,5.01,0.00,29.6,28.6,00.0,38.8,31.3,09.2,0000.0,0003.13,0002.52,0002.28
2021-10-11 04:44:00,,0822.1,4.99,0.00,29.6,28.6,00.0,38.8,31.3,09.2,0000.0,0003.16,0002.53,0002.28
2021-10-11 04:45:00,,0822.1,5.00,0.00,29.6,28.5,00.0,38.8,31.3,09.2,0000.0,0003.07,0002.50,0002.29
2021-10-11 04:46:00,,0822.1,5.01,0.00,29.6,28.5,00.0,38.8,31.3,09.2,0000.0,0003.06,0002.50,0002.29
2021-10-11 04:47:00,,0822.1,4.99,0.00,29.6,28.5,00.0,38.8,31.3,09.2,0000.0,0003.03,0002.49,0002.29
2021-10-11 04:48:00,,0822.1,4.99,0.00,29.6,28.5,00.0,38.8,31.3,09.2,0000.0,0003.11,0002.49,0002.29
2021-10-11 04:49:00,,0822.1,5.01,0.00,29.6,28.5,00.0,38.8,31.3,09.2,0000.0,0003.09,0002.49,0002.28
2021-10-11 04:50:00,,0822.1,5.00,0.00,29.6,28.5,00.0,38.8,31.3,09.2,0000.0,0003.13,0002.49,0002.27
2021-10-11 04:51:00,,0822.1,4.99,0.00,29.6,28.5,00.0,38.8,31.3,09.1,0000.0,0004.31,0002.49,0002.28
2021-10-11 04:52:00,,0822.1,5.01,0.00,29.6,28.5,00.0,38.8,31.3,09.1,0000.0,0004.79,0002.50,0002.29
2021-10-11 04:53:00,,0822.1,5.00,0.00,29.6,28.5,00.0,38.8,31.2,09.1,0000.0,0004.86,0002.52,0002.28
2021-10-11 04:54:00,,0822.1,4.99,0.00,29.6,28.5,00.0,38.8,31.3,09.1,0000.0,0004.79,0002.50,0002.28
2021-10-11 04:55:00,,0822.1,5.02,0.00,29.6,28.5,00.0,38.8,31.3,09.1,0000.0,0004.79,0002.50,0002.27
2021-10-11 04:56:00,,0822.2,4.99,0.00,29.6,28.5,00.0,38.8,31.3,09.2,0000.0,0004.84,0002.50,0002.26
2021-10-11 04:57:00,,0822.2,5.01,0.00,29.6,28.6,00.0,38.8,31.3,09.2,0000.0,0004.85,0002.50,0002.25
2021-10-11 04:58:00,,0822.2,5.00,0.00,29.6,28.6,00.0,38.8,31.4,09.2,0000.0,0004.90,0002.51,0002.25
2021-10-11 04:59:00,,0822.2,5.00,0.00,29.6,28.6,00.0,38.8,31.4,09.2,0000.0,0005.51,0002.53,0002.26
